Weather in Chervony Mayak

Ukraine / Kherson District     46°56′49″N   33°36′03″E
temp.,
°C
wind,
m/s
gust,
m/s
humid.,
%
clouds,
%
prec.,
mm/h
press.,
hPa
HPBL,
m
23 april, fri
fri2300:00+8ssw49890 0.0 1021197
03:00+7s410925 0.0 1021214
06:00+7s51289100 0.0 1020255
09:00+13ssw71065100 0.0 1020545
12:00+16ssw795087 0.0 10191265
15:00+15ssw81152100 0.0 10181194
18:00+14sw6961100 0.0 1017790
21:00+11wsw4878100 0.3 1017387
24 april, sat
sat2400:00+7nnw6890100 0.2 1018337
03:00+6nw49920 0.8 1019339
06:00+4w48940 0.0 1020192
09:00+9wnw57620 0.0 1021662
12:00+13wnw69385 0.0 10212025
15:00+13wnw101141100 0.0 10202499
18:00+11nw7104716 0.0 10221661
21:00+7nw35514 0.0 102378
25 april, sun
sun2500:00+5nw22530 0.0 102425
03:00+4nw11530 0.0 102315
06:00+4sw11530 0.0 102316
09:00+10s22415 0.0 1022488
12:00+12sse32345 0.0 10211605
15:00+14sse233390 0.0 10191896
18:00+13se344192 0.0 1018391
21:00+8ssw61060100 0.0 1019235
26 april, mon
mon2600:00+6w336180 0.0 101846
03:00+7nw2363100 0.0 101783
06:00+6wsw226721 0.0 101619
09:00+10wnw446586 0.0 1016863
12:00+6nw6886100 0.3 1017775
15:00+8n356967 0.4 1017945
18:00+11nw36427 0.1 10161740
21:00+7wnw33576 0.1 101737
27 april, tue
tue2700:00+5w22655 0.0 101727
03:00+5wsw2270100 0.0 101728
06:00+5wnw1177100 0.0 101722
09:00+6sw3483100 1.4 1018768
12:00+6wsw2488100 3.3 1018831
15:00+6w2386100 3.6 1017486
18:00+6n228675 0.0 1018382
21:00+4se119126 0.0 101822